Regional Weather Roundup
Issued by NWS

Home | Current Version | Previous Version | Text Only | Print | Product List | Glossary Off
Versions: 1 2 3 4 5 6 7 8 9 10 11 12 13 14 15 16 17 18 19 20 21 22 23 24 25 26 27 28 29 30 31 32 33 34 35 36 37 38 39 40 41 42 43 44 45 46 47 48 49 50

908
ASUS43 KDTX 030701
RWRMI
MICHIGAN HOURLY REGIONAL WEATHER ROUNDUP
NATIONAL WEATHER SERVICE DETROIT/PONTIAC MI
300 AM EDT TUE MAY 03 2016

NOTE: "FAIR" INDICATES FEW OR NO CLOUDS BELOW 12,000 FEET WITH NO
SIGNIFICANT WEATHER AND/OR OBSTRUCTION TO VISIBILITY.

MIZ047>049-052>055-059>063-066>070-074>076-081>083-030800-
SOUTHEAST LOWER MICHIGAN

CITY           SKY/WX    TMP DP  RH WIND       PRES   REMARKS
ALMA           CLEAR     35  35 100 CALM      29.96F FOG
ANN ARBOR      CLOUDY    46  45  96 CALM      29.95S
BAD AXE        CLEAR     33  32  96 CALM      29.97S
CARO           CLEAR     33  33  97 CALM      29.95F
DETROIT CITY   CLEAR     42  38  85 CALM      29.96F
DETROIT        CLOUDY    47  44  90 CALM      29.96F FOG
FLINT          FOG       39  35  86 CALM      29.97S VSB 3/4
GROSSE ILE     PTCLDY    46  45  93 CALM      29.95S FOG
HILLSDALE      PTCLDY    46  44  94 CALM      29.95F
HOWELL         CLOUDY    44  42  91 CALM      29.95S

CITY           SKY/WX    TMP DP  RH WIND       PRES   REMARKS
JACKSON        CLOUDY    47  45  93 CALM      29.95F
LAMBERTVILLE   CLOUDY    49  47  91 CALM      29.96F FOG
LANSING        CLOUDY    45  41  86 NW6       29.97S
LAPEER         FAIR      35  34  98 CALM      29.96F FOG
MASON          CLOUDY    46  43  90 CALM      29.96S
MONROE         CLOUDY    48  47  99 CALM      29.95S FOG
MT. CLEMENS    CLEAR     39  39 100 CALM      29.95F
PONTIAC        CLEAR     38  36  92 CALM      29.95S FOG
PORT HOPE        N/A     37  33  85 SW3       29.94F
TRI CITIES     CLEAR     40  32  73 SE6       29.96F
MIDLAND        FAIR      35  32  91 CALM      29.95F
TROY           CLEAR     43  40  89 CALM      29.97F
SAGINAW HB     CLEAR     37  32  81 CALM      29.96S
$$
MIZ043>046-050>051-056>058-064>065-071>073-077>080-030800-
SOUTHWEST LOWER MICHIGAN

CITY           SKY/WX    TMP DP  RH WIND       PRES   REMARKS
BATTLE CREEK   CLOUDY    48  44  86 NW5       29.97F
BENTON HARBOR  CLEAR     38  36  92 CALM      29.98F
BIG RAPIDS     CLEAR     39  34  82 CALM      29.95F
COLDWATER      CLOUDY    46  46  99 CALM      29.96F
FREMONT        FAIR      40  40 100 CALM      29.96S
HOLLAND        PTCLDY    39  37  92 CALM      29.97F
GRAND RAPIDS   CLEAR     41  38  89 CALM      29.97F
IONIA          FAIR      42  39  92 W3        29.95F
KALAMAZOO      CLOUDY    48  43  82 CALM      29.98S
LUDINGTON      CLEAR     39  36  87 CALM      29.96F
MARSHALL       CLOUDY    47  45  91 CALM      29.96S
MOUNT PLEASANT CLEAR     40  36  87 CALM      29.95F
MUSKEGON       CLEAR     38  34  85 CALM      29.97F
SOUTH HAVEN    CLEAR     36  36  99 CALM      29.98F
$$
MIZ016>042-030800-
NORTHERN LOWER MICHIGAN

CITY           SKY/WX    TMP DP  RH WIND       PRES   REMARKS
ALPENA         CLEAR     36  32  85 CALM      29.94F
BEAVER ISLAND  CLEAR     35  32  88 CALM      29.93F
BELLAIRE       CLEAR     35  32  88 CALM      29.96F
CADILLAC       PTCLDY    32  29  89 NW3       29.94F
CHARLEVOIX     CLEAR     39  33  79 CALM      29.97S
FRANKFORT      CLEAR     35  32  90 CALM      29.95F
GAYLORD        CLEAR     34  28  79 CALM      29.93F
HARBOR SPRINGS PTCLDY    36  31  82 CALM      29.94S
HOUGHTON LAKE  CLEAR     35  32  88 CALM      29.95F
MANISTEE       CLEAR     34  27  75 CALM      29.96F
OSCODA         CLEAR     40  28  63 CALM      29.95S
PELLSTON       PTCLDY    30  27  88 CALM      29.93F
ROGERS CITY    CLEAR     37  31  79 W3        29.94S
TRAVERSE CITY  CLEAR     39  31  72 CALM      29.94F
$$
MIZ007>008-015-030800-
EASTERN UPPER MICHIGAN

CITY           SKY/WX    TMP DP  RH WIND       PRES   REMARKS
KINROSS          N/A     37  32  81 CALM      29.92S
MACKINAC ISLAN CLEAR     39  31  71 CALM      29.92F
NEWBERRY       CLEAR     33  31  92 CALM      29.92S
S. S. MARIE    CLEAR     39  29  67 CALM      29.91F
MUNISING         N/A     34  30  85 S6        29.90F WCI  29
$$
MIZ004>006-011>014-085-030800-
CENTRAL UPPER MICHIGAN

CITY           SKY/WX    TMP DP  RH WIND       PRES   REMARKS
MANISTIQUE     CLEAR     33  31  94 CALM      29.92F
ESCANABA       CLEAR     36  34  93 CALM      29.91F
MENOMINEE      CLEAR     41  36  81 SW5       29.93F
SAWYER-GWINN   CLEAR     33  29  85 CALM      29.89F
$$
MIZ001>003-009>011-084-030800-
WESTERN UPPER MICHIGAN

CITY           SKY/WX    TMP DP  RH WIND       PRES   REMARKS
IRON MOUNTAIN  CLEAR     34  28  79 CALM      29.90F
HOUGHTON       CLEAR     47  30  51 SW5       29.87F
COPPER HARBOR    N/A     45  33  63 SW6       29.86F
IRONWOOD         N/A     36  34  93 CALM      29.88F
$$

ABBREVIATIONS USED IN REMARKS
   TC - TEMPERATURE IN CELSIUS
  WCI - WIND CHILL INDEX
   HX - HEAT INDEX
  VSB - VISIBILITY





USA.gov is the U.S. government's official web portal to all federal, state and local government web resources and services.